Index of /20260426/WXO-DD/model_caps/3km/00/000
Name Last modified Size Description
Parent Directory -
20260426T00Z_MSC_CAPS_AbsoluteVorticity_IsbL-0250_RLatLon0.03_PT000H.grib2 2026-04-26 06:02 1.3M
20260426T00Z_MSC_CAPS_AbsoluteVorticity_IsbL-0500_RLatLon0.03_PT000H.grib2 2026-04-26 06:02 1.1M
20260426T00Z_MSC_CAPS_AbsoluteVorticity_IsbL-0700_RLatLon0.03_PT000H.grib2 2026-04-26 06:02 1.3M
20260426T00Z_MSC_CAPS_AbsoluteVorticity_IsbL-0850_RLatLon0.03_PT000H.grib2 2026-04-26 06:02 1.2M
20260426T00Z_MSC_CAPS_AbsoluteVorticity_IsbL-1000_RLatLon0.03_PT000H.grib2 2026-04-26 06:02 1.3M
20260426T00Z_MSC_CAPS_AirDensity_AGL-120m_RLatLon0.03_PT000H.grib2 2026-04-26 06:02 1.1M
20260426T00Z_MSC_CAPS_AirDensity_AGL-40m_RLatLon0.03_PT000H.grib2 2026-04-26 06:02 1.1M
20260426T00Z_MSC_CAPS_AirDensity_AGL-80m_RLatLon0.03_PT000H.grib2 2026-04-26 06:02 1.1M
20260426T00Z_MSC_CAPS_AirTemp_AGL-120m_RLatLon0.03_PT000H.grib2 2026-04-26 06:02 1.0M
20260426T00Z_MSC_CAPS_AirTemp_AGL-2m_RLatLon0.03_PT000H.grib2 2026-04-26 06:02 962K
20260426T00Z_MSC_CAPS_AirTemp_AGL-40m_RLatLon0.03_PT000H.grib2 2026-04-26 06:02 1.1M
20260426T00Z_MSC_CAPS_AirTemp_AGL-80m_RLatLon0.03_PT000H.grib2 2026-04-26 06:02 1.0M
20260426T00Z_MSC_CAPS_AirTemp_IsbL-0050_RLatLon0.03_PT000H.grib2 2026-04-26 06:02 895K
20260426T00Z_MSC_CAPS_AirTemp_IsbL-0100_RLatLon0.03_PT000H.grib2 2026-04-26 06:02 739K
20260426T00Z_MSC_CAPS_AirTemp_IsbL-0150_RLatLon0.03_PT000H.grib2 2026-04-26 06:02 927K
20260426T00Z_MSC_CAPS_AirTemp_IsbL-0175_RLatLon0.03_PT000H.grib2 2026-04-26 06:02 721K
20260426T00Z_MSC_CAPS_AirTemp_IsbL-0200_RLatLon0.03_PT000H.grib2 2026-04-26 06:02 733K
20260426T00Z_MSC_CAPS_AirTemp_IsbL-0225_RLatLon0.03_PT000H.grib2 2026-04-26 06:02 732K
20260426T00Z_MSC_CAPS_AirTemp_IsbL-0250_RLatLon0.03_PT000H.grib2 2026-04-26 06:02 953K
20260426T00Z_MSC_CAPS_AirTemp_IsbL-0275_RLatLon0.03_PT000H.grib2 2026-04-26 06:02 958K
20260426T00Z_MSC_CAPS_AirTemp_IsbL-0300_RLatLon0.03_PT000H.grib2 2026-04-26 06:02 958K
20260426T00Z_MSC_CAPS_AirTemp_IsbL-0350_RLatLon0.03_PT000H.grib2 2026-04-26 06:02 945K
20260426T00Z_MSC_CAPS_AirTemp_IsbL-0400_RLatLon0.03_PT000H.grib2 2026-04-26 06:02 723K
20260426T00Z_MSC_CAPS_AirTemp_IsbL-0450_RLatLon0.03_PT000H.grib2 2026-04-26 06:02 728K
20260426T00Z_MSC_CAPS_AirTemp_IsbL-0500_RLatLon0.03_PT000H.grib2 2026-04-26 06:02 734K
20260426T00Z_MSC_CAPS_AirTemp_IsbL-0550_RLatLon0.03_PT000H.grib2 2026-04-26 06:02 740K
20260426T00Z_MSC_CAPS_AirTemp_IsbL-0600_RLatLon0.03_PT000H.grib2 2026-04-26 06:02 749K
20260426T00Z_MSC_CAPS_AirTemp_IsbL-0650_RLatLon0.03_PT000H.grib2 2026-04-26 06:02 762K
20260426T00Z_MSC_CAPS_AirTemp_IsbL-0700_RLatLon0.03_PT000H.grib2 2026-04-26 06:02 777K
20260426T00Z_MSC_CAPS_AirTemp_IsbL-0750_RLatLon0.03_PT000H.grib2 2026-04-26 06:02 960K
20260426T00Z_MSC_CAPS_AirTemp_IsbL-0800_RLatLon0.03_PT000H.grib2 2026-04-26 06:02 1.0M
20260426T00Z_MSC_CAPS_AirTemp_IsbL-0850_RLatLon0.03_PT000H.grib2 2026-04-26 06:02 928K
20260426T00Z_MSC_CAPS_AirTemp_IsbL-0875_RLatLon0.03_PT000H.grib2 2026-04-26 06:02 957K
20260426T00Z_MSC_CAPS_AirTemp_IsbL-0900_RLatLon0.03_PT000H.grib2 2026-04-26 06:02 970K
20260426T00Z_MSC_CAPS_AirTemp_IsbL-0925_RLatLon0.03_PT000H.grib2 2026-04-26 06:02 1.0M
20260426T00Z_MSC_CAPS_AirTemp_IsbL-0950_RLatLon0.03_PT000H.grib2 2026-04-26 06:02 1.0M
20260426T00Z_MSC_CAPS_AirTemp_IsbL-0970_RLatLon0.03_PT000H.grib2 2026-04-26 06:02 1.0M
20260426T00Z_MSC_CAPS_AirTemp_IsbL-0985_RLatLon0.03_PT000H.grib2 2026-04-26 06:02 1.0M
20260426T00Z_MSC_CAPS_AirTemp_IsbL-1000_RLatLon0.03_PT000H.grib2 2026-04-26 06:02 1.0M
20260426T00Z_MSC_CAPS_AirTemp_IsbL-1015_RLatLon0.03_PT000H.grib2 2026-04-26 06:02 1.0M
20260426T00Z_MSC_CAPS_Albedo_Sfc_RLatLon0.03_PT000H.grib2 2026-04-26 06:02 2.7M
20260426T00Z_MSC_CAPS_CAPE_Sfc_RLatLon0.03_PT000H.grib2 2026-04-26 06:02 145K
20260426T00Z_MSC_CAPS_CloudWater_EAtm_RLatLon0.03_PT000H.grib2 2026-04-26 06:02 1.0M
20260426T00Z_MSC_CAPS_DewPointDepression_AGL-120m_RLatLon0.03_PT000H.grib2 2026-04-26 06:02 1.3M
20260426T00Z_MSC_CAPS_DewPointDepression_AGL-2m_RLatLon0.03_PT000H.grib2 2026-04-26 06:02 1.1M
20260426T00Z_MSC_CAPS_DewPointDepression_AGL-40m_RLatLon0.03_PT000H.grib2 2026-04-26 06:02 1.4M
20260426T00Z_MSC_CAPS_DewPointDepression_AGL-80m_RLatLon0.03_PT000H.grib2 2026-04-26 06:02 1.3M
20260426T00Z_MSC_CAPS_DewPointDepression_IsbL-0050_RLatLon0.03_PT000H.grib2 2026-04-26 06:02 193
20260426T00Z_MSC_CAPS_DewPointDepression_IsbL-0100_RLatLon0.03_PT000H.grib2 2026-04-26 06:02 106K
20260426T00Z_MSC_CAPS_DewPointDepression_IsbL-0150_RLatLon0.03_PT000H.grib2 2026-04-26 06:02 129K
20260426T00Z_MSC_CAPS_DewPointDepression_IsbL-0175_RLatLon0.03_PT000H.grib2 2026-04-26 06:02 242K
20260426T00Z_MSC_CAPS_DewPointDepression_IsbL-0200_RLatLon0.03_PT000H.grib2 2026-04-26 06:02 363K
20260426T00Z_MSC_CAPS_DewPointDepression_IsbL-0225_RLatLon0.03_PT000H.grib2 2026-04-26 06:02 549K
20260426T00Z_MSC_CAPS_DewPointDepression_IsbL-0250_RLatLon0.03_PT000H.grib2 2026-04-26 06:02 716K
20260426T00Z_MSC_CAPS_DewPointDepression_IsbL-0275_RLatLon0.03_PT000H.grib2 2026-04-26 06:02 828K
20260426T00Z_MSC_CAPS_DewPointDepression_IsbL-0300_RLatLon0.03_PT000H.grib2 2026-04-26 06:02 885K
20260426T00Z_MSC_CAPS_DewPointDepression_IsbL-0350_RLatLon0.03_PT000H.grib2 2026-04-26 06:02 927K
20260426T00Z_MSC_CAPS_DewPointDepression_IsbL-0400_RLatLon0.03_PT000H.grib2 2026-04-26 06:02 956K
20260426T00Z_MSC_CAPS_DewPointDepression_IsbL-0450_RLatLon0.03_PT000H.grib2 2026-04-26 06:02 1.0M
20260426T00Z_MSC_CAPS_DewPointDepression_IsbL-0500_RLatLon0.03_PT000H.grib2 2026-04-26 06:02 1.0M
20260426T00Z_MSC_CAPS_DewPointDepression_IsbL-0550_RLatLon0.03_PT000H.grib2 2026-04-26 06:02 1.0M
20260426T00Z_MSC_CAPS_DewPointDepression_IsbL-0600_RLatLon0.03_PT000H.grib2 2026-04-26 06:02 1.0M
20260426T00Z_MSC_CAPS_DewPointDepression_IsbL-0650_RLatLon0.03_PT000H.grib2 2026-04-26 06:02 1.0M
20260426T00Z_MSC_CAPS_DewPointDepression_IsbL-0700_RLatLon0.03_PT000H.grib2 2026-04-26 06:02 1.0M
20260426T00Z_MSC_CAPS_DewPointDepression_IsbL-0750_RLatLon0.03_PT000H.grib2 2026-04-26 06:02 1.0M
20260426T00Z_MSC_CAPS_DewPointDepression_IsbL-0800_RLatLon0.03_PT000H.grib2 2026-04-26 06:02 1.1M
20260426T00Z_MSC_CAPS_DewPointDepression_IsbL-0850_RLatLon0.03_PT000H.grib2 2026-04-26 06:02 1.1M
20260426T00Z_MSC_CAPS_DewPointDepression_IsbL-0875_RLatLon0.03_PT000H.grib2 2026-04-26 06:02 1.1M
20260426T00Z_MSC_CAPS_DewPointDepression_IsbL-0900_RLatLon0.03_PT000H.grib2 2026-04-26 06:02 1.1M
20260426T00Z_MSC_CAPS_DewPointDepression_IsbL-0925_RLatLon0.03_PT000H.grib2 2026-04-26 06:02 1.1M
20260426T00Z_MSC_CAPS_DewPointDepression_IsbL-0950_RLatLon0.03_PT000H.grib2 2026-04-26 06:02 1.1M
20260426T00Z_MSC_CAPS_DewPointDepression_IsbL-0970_RLatLon0.03_PT000H.grib2 2026-04-26 06:02 1.1M
20260426T00Z_MSC_CAPS_DewPointDepression_IsbL-0985_RLatLon0.03_PT000H.grib2 2026-04-26 06:02 1.1M
20260426T00Z_MSC_CAPS_DewPointDepression_IsbL-1000_RLatLon0.03_PT000H.grib2 2026-04-26 06:02 1.1M
20260426T00Z_MSC_CAPS_DewPointDepression_IsbL-1015_RLatLon0.03_PT000H.grib2 2026-04-26 06:02 1.0M
20260426T00Z_MSC_CAPS_DewPoint_AGL-120m_RLatLon0.03_PT000H.grib2 2026-04-26 06:02 3.0M
20260426T00Z_MSC_CAPS_DewPoint_AGL-2m_RLatLon0.03_PT000H.grib2 2026-04-26 06:02 1.2M
20260426T00Z_MSC_CAPS_DewPoint_AGL-40m_RLatLon0.03_PT000H.grib2 2026-04-26 06:02 3.2M
20260426T00Z_MSC_CAPS_DewPoint_AGL-80m_RLatLon0.03_PT000H.grib2 2026-04-26 06:02 3.0M
20260426T00Z_MSC_CAPS_DownwardLongwaveRadiationFlux-Accum_Sfc_RLatLon0.03_PT000H.grib2 2026-04-26 06:02 217
20260426T00Z_MSC_CAPS_DownwardShortwaveRadiationFlux-Accum_NTAtm_RLatLon0.03_PT000H.grib2 2026-04-26 06:02 217
20260426T00Z_MSC_CAPS_DownwardShortwaveRadiationFlux-Accum_Sfc_RLatLon0.03_PT000H.grib2 2026-04-26 06:02 217
20260426T00Z_MSC_CAPS_GeopotentialHeight_IsbL-0050_RLatLon0.03_PT000H.grib2 2026-04-26 06:02 931K
20260426T00Z_MSC_CAPS_GeopotentialHeight_IsbL-0100_RLatLon0.03_PT000H.grib2 2026-04-26 06:02 854K
20260426T00Z_MSC_CAPS_GeopotentialHeight_IsbL-0150_RLatLon0.03_PT000H.grib2 2026-04-26 06:02 794K
20260426T00Z_MSC_CAPS_GeopotentialHeight_IsbL-0175_RLatLon0.03_PT000H.grib2 2026-04-26 06:02 628K
20260426T00Z_MSC_CAPS_GeopotentialHeight_IsbL-0200_RLatLon0.03_PT000H.grib2 2026-04-26 06:02 638K
20260426T00Z_MSC_CAPS_GeopotentialHeight_IsbL-0225_RLatLon0.03_PT000H.grib2 2026-04-26 06:02 756K
20260426T00Z_MSC_CAPS_GeopotentialHeight_IsbL-0250_RLatLon0.03_PT000H.grib2 2026-04-26 06:02 769K
20260426T00Z_MSC_CAPS_GeopotentialHeight_IsbL-0275_RLatLon0.03_PT000H.grib2 2026-04-26 06:02 775K
20260426T00Z_MSC_CAPS_GeopotentialHeight_IsbL-0300_RLatLon0.03_PT000H.grib2 2026-04-26 06:02 780K
20260426T00Z_MSC_CAPS_GeopotentialHeight_IsbL-0350_RLatLon0.03_PT000H.grib2 2026-04-26 06:02 783K
20260426T00Z_MSC_CAPS_GeopotentialHeight_IsbL-0400_RLatLon0.03_PT000H.grib2 2026-04-26 06:02 781K
20260426T00Z_MSC_CAPS_GeopotentialHeight_IsbL-0450_RLatLon0.03_PT000H.grib2 2026-04-26 06:02 656K
20260426T00Z_MSC_CAPS_GeopotentialHeight_IsbL-0500_RLatLon0.03_PT000H.grib2 2026-04-26 06:02 648K
20260426T00Z_MSC_CAPS_GeopotentialHeight_IsbL-0550_RLatLon0.03_PT000H.grib2 2026-04-26 06:02 823K
20260426T00Z_MSC_CAPS_GeopotentialHeight_IsbL-0600_RLatLon0.03_PT000H.grib2 2026-04-26 06:02 819K
20260426T00Z_MSC_CAPS_GeopotentialHeight_IsbL-0650_RLatLon0.03_PT000H.grib2 2026-04-26 06:02 817K
20260426T00Z_MSC_CAPS_GeopotentialHeight_IsbL-0700_RLatLon0.03_PT000H.grib2 2026-04-26 06:02 896K
20260426T00Z_MSC_CAPS_GeopotentialHeight_IsbL-0750_RLatLon0.03_PT000H.grib2 2026-04-26 06:02 894K
20260426T00Z_MSC_CAPS_GeopotentialHeight_IsbL-0800_RLatLon0.03_PT000H.grib2 2026-04-26 06:02 894K
20260426T00Z_MSC_CAPS_GeopotentialHeight_IsbL-0850_RLatLon0.03_PT000H.grib2 2026-04-26 06:02 900K
20260426T00Z_MSC_CAPS_GeopotentialHeight_IsbL-0875_RLatLon0.03_PT000H.grib2 2026-04-26 06:02 902K
20260426T00Z_MSC_CAPS_GeopotentialHeight_IsbL-0900_RLatLon0.03_PT000H.grib2 2026-04-26 06:02 906K
20260426T00Z_MSC_CAPS_GeopotentialHeight_IsbL-0925_RLatLon0.03_PT000H.grib2 2026-04-26 06:02 830K
20260426T00Z_MSC_CAPS_GeopotentialHeight_IsbL-0950_RLatLon0.03_PT000H.grib2 2026-04-26 06:02 824K
20260426T00Z_MSC_CAPS_GeopotentialHeight_IsbL-0970_RLatLon0.03_PT000H.grib2 2026-04-26 06:02 838K
20260426T00Z_MSC_CAPS_GeopotentialHeight_IsbL-0985_RLatLon0.03_PT000H.grib2 2026-04-26 06:02 843K
20260426T00Z_MSC_CAPS_GeopotentialHeight_IsbL-1000_RLatLon0.03_PT000H.grib2 2026-04-26 06:02 849K
20260426T00Z_MSC_CAPS_GeopotentialHeight_IsbL-1015_RLatLon0.03_PT000H.grib2 2026-04-26 06:02 855K
20260426T00Z_MSC_CAPS_GeopotentialHeight_Sfc_RLatLon0.03_PT000H.grib2 2026-04-26 06:02 887K
20260426T00Z_MSC_CAPS_LandWaterProportion_Sfc_RLatLon0.03_PT000H.grib2 2026-04-26 06:02 2.0M
20260426T00Z_MSC_CAPS_LatentHeatNetFlux_Sfc_RLatLon0.03_PT000H.grib2 2026-04-26 06:02 1.9M
20260426T00Z_MSC_CAPS_LiftedIndex-MU-VT_IsbL-0500_RLatLon0.03_PT000H.grib2 2026-04-26 06:02 3.1M
20260426T00Z_MSC_CAPS_NetLongwaveRadiationFlux-Accum_Sfc_RLatLon0.03_PT000H.grib2 2026-04-26 06:02 217
20260426T00Z_MSC_CAPS_NetShortwaveRadiationFlux-Accum_Sfc_RLatLon0.03_PT000H.grib2 2026-04-26 06:02 217
20260426T00Z_MSC_CAPS_PlanetaryBoundaryLayerHeight_Sfc_RLatLon0.03_PT000H.grib2 2026-04-26 06:02 2.5M
20260426T00Z_MSC_CAPS_Pressure_MSL_RLatLon0.03_PT000H.grib2 2026-04-26 06:02 738K
20260426T00Z_MSC_CAPS_Pressure_Sfc_RLatLon0.03_PT000H.grib2 2026-04-26 06:02 915K
20260426T00Z_MSC_CAPS_RadiativeTemp_Sfc_RLatLon0.03_PT000H.grib2 2026-04-26 06:02 2.1M
20260426T00Z_MSC_CAPS_RelativeHumidity_AGL-120m_RLatLon0.03_PT000H.grib2 2026-04-26 06:02 2.1M
20260426T00Z_MSC_CAPS_RelativeHumidity_AGL-2m_RLatLon0.03_PT000H.grib2 2026-04-26 06:02 1.9M
20260426T00Z_MSC_CAPS_RelativeHumidity_AGL-40m_RLatLon0.03_PT000H.grib2 2026-04-26 06:02 2.2M
20260426T00Z_MSC_CAPS_RelativeHumidity_AGL-80m_RLatLon0.03_PT000H.grib2 2026-04-26 06:02 2.1M
20260426T00Z_MSC_CAPS_RelativeHumidity_IsbL-0050_RLatLon0.03_PT000H.grib2 2026-04-26 06:02 1.0M
20260426T00Z_MSC_CAPS_RelativeHumidity_IsbL-0100_RLatLon0.03_PT000H.grib2 2026-04-26 06:02 1.1M
20260426T00Z_MSC_CAPS_RelativeHumidity_IsbL-0150_RLatLon0.03_PT000H.grib2 2026-04-26 06:02 841K
20260426T00Z_MSC_CAPS_RelativeHumidity_IsbL-0175_RLatLon0.03_PT000H.grib2 2026-04-26 06:02 479K
20260426T00Z_MSC_CAPS_RelativeHumidity_IsbL-0200_RLatLon0.03_PT000H.grib2 2026-04-26 06:02 611K
20260426T00Z_MSC_CAPS_RelativeHumidity_IsbL-0225_RLatLon0.03_PT000H.grib2 2026-04-26 06:02 764K
20260426T00Z_MSC_CAPS_RelativeHumidity_IsbL-0250_RLatLon0.03_PT000H.grib2 2026-04-26 06:02 883K
20260426T00Z_MSC_CAPS_RelativeHumidity_IsbL-0275_RLatLon0.03_PT000H.grib2 2026-04-26 06:02 1.1M
20260426T00Z_MSC_CAPS_RelativeHumidity_IsbL-0300_RLatLon0.03_PT000H.grib2 2026-04-26 06:02 1.3M
20260426T00Z_MSC_CAPS_RelativeHumidity_IsbL-0350_RLatLon0.03_PT000H.grib2 2026-04-26 06:02 1.5M
20260426T00Z_MSC_CAPS_RelativeHumidity_IsbL-0400_RLatLon0.03_PT000H.grib2 2026-04-26 06:02 1.6M
20260426T00Z_MSC_CAPS_RelativeHumidity_IsbL-0450_RLatLon0.03_PT000H.grib2 2026-04-26 06:02 1.7M
20260426T00Z_MSC_CAPS_RelativeHumidity_IsbL-0500_RLatLon0.03_PT000H.grib2 2026-04-26 06:02 1.6M
20260426T00Z_MSC_CAPS_RelativeHumidity_IsbL-0550_RLatLon0.03_PT000H.grib2 2026-04-26 06:02 1.5M
20260426T00Z_MSC_CAPS_RelativeHumidity_IsbL-0600_RLatLon0.03_PT000H.grib2 2026-04-26 06:02 1.7M
20260426T00Z_MSC_CAPS_RelativeHumidity_IsbL-0650_RLatLon0.03_PT000H.grib2 2026-04-26 06:02 1.7M
20260426T00Z_MSC_CAPS_RelativeHumidity_IsbL-0700_RLatLon0.03_PT000H.grib2 2026-04-26 06:02 1.9M
20260426T00Z_MSC_CAPS_RelativeHumidity_IsbL-0750_RLatLon0.03_PT000H.grib2 2026-04-26 06:02 1.9M
20260426T00Z_MSC_CAPS_RelativeHumidity_IsbL-0800_RLatLon0.03_PT000H.grib2 2026-04-26 06:02 2.0M
20260426T00Z_MSC_CAPS_RelativeHumidity_IsbL-0850_RLatLon0.03_PT000H.grib2 2026-04-26 06:02 2.0M
20260426T00Z_MSC_CAPS_RelativeHumidity_IsbL-0875_RLatLon0.03_PT000H.grib2 2026-04-26 06:02 2.0M
20260426T00Z_MSC_CAPS_RelativeHumidity_IsbL-0900_RLatLon0.03_PT000H.grib2 2026-04-26 06:02 2.0M
20260426T00Z_MSC_CAPS_RelativeHumidity_IsbL-0925_RLatLon0.03_PT000H.grib2 2026-04-26 06:02 2.0M
20260426T00Z_MSC_CAPS_RelativeHumidity_IsbL-0950_RLatLon0.03_PT000H.grib2 2026-04-26 06:02 2.0M
20260426T00Z_MSC_CAPS_RelativeHumidity_IsbL-0970_RLatLon0.03_PT000H.grib2 2026-04-26 06:02 2.0M
20260426T00Z_MSC_CAPS_RelativeHumidity_IsbL-0985_RLatLon0.03_PT000H.grib2 2026-04-26 06:02 2.0M
20260426T00Z_MSC_CAPS_RelativeHumidity_IsbL-1000_RLatLon0.03_PT000H.grib2 2026-04-26 06:02 2.0M
20260426T00Z_MSC_CAPS_RelativeHumidity_IsbL-1015_RLatLon0.03_PT000H.grib2 2026-04-26 06:02 1.9M
20260426T00Z_MSC_CAPS_Runoff-Accum_Sfc_RLatLon0.03_PT000H.grib2 2026-04-26 06:02 193
20260426T00Z_MSC_CAPS_SeaIceFraction_Sfc_RLatLon0.03_PT000H.grib2 2026-04-26 06:02 2.3M
20260426T00Z_MSC_CAPS_SeaWaterTemp_Sfc_RLatLon0.03_PT000H.grib2 2026-04-26 06:02 2.0M
20260426T00Z_MSC_CAPS_SensibleHeatNetFlux_Sfc_RLatLon0.03_PT000H.grib2 2026-04-26 06:02 1.8M
20260426T00Z_MSC_CAPS_ShowalterIndex_IsbL-0500_RLatLon0.03_PT000H.grib2 2026-04-26 06:02 4.2M
20260426T00Z_MSC_CAPS_SnowDensity_Sfc_RLatLon0.03_PT000H.grib2 2026-04-26 06:02 1.1M
20260426T00Z_MSC_CAPS_SnowDepthWaterEquivalent_Sfc_RLatLon0.03_PT000H.grib2 2026-04-26 06:02 706K
20260426T00Z_MSC_CAPS_SnowDepth_Sfc_RLatLon0.03_PT000H.grib2 2026-04-26 06:02 1.2M
20260426T00Z_MSC_CAPS_SoilTemp_DBS-0to10cm_RLatLon0.03_PT000H.grib2 2026-04-26 06:02 1.0M
20260426T00Z_MSC_CAPS_SoilTemp_Sfc_RLatLon0.03_PT000H.grib2 2026-04-26 06:02 1.3M
20260426T00Z_MSC_CAPS_SoilVolumetricIceContent_Sfc_RLatLon0.03_PT000H.grib2 2026-04-26 06:02 1.3M
20260426T00Z_MSC_CAPS_SoilVolumetricWaterContent_DBS-0to10cm_RLatLon0.03_PT000H.grib2 2026-04-26 06:02 1.0M
20260426T00Z_MSC_CAPS_SoilVolumetricWaterContent_DBS-0to1cm_RLatLon0.03_PT000H.grib2 2026-04-26 06:02 1.6M
20260426T00Z_MSC_CAPS_SpecificHumidity_AGL-120m_RLatLon0.03_PT000H.grib2 2026-04-26 06:02 1.1M
20260426T00Z_MSC_CAPS_SpecificHumidity_AGL-2m_RLatLon0.03_PT000H.grib2 2026-04-26 06:02 1.1M
20260426T00Z_MSC_CAPS_SpecificHumidity_AGL-40m_RLatLon0.03_PT000H.grib2 2026-04-26 06:02 1.3M
20260426T00Z_MSC_CAPS_SpecificHumidity_AGL-80m_RLatLon0.03_PT000H.grib2 2026-04-26 06:02 1.2M
20260426T00Z_MSC_CAPS_SpecificHumidity_IsbL-0050_RLatLon0.03_PT000H.grib2 2026-04-26 06:02 860K
20260426T00Z_MSC_CAPS_SpecificHumidity_IsbL-0100_RLatLon0.03_PT000H.grib2 2026-04-26 06:02 756K
20260426T00Z_MSC_CAPS_SpecificHumidity_IsbL-0150_RLatLon0.03_PT000H.grib2 2026-04-26 06:02 1.0M
20260426T00Z_MSC_CAPS_SpecificHumidity_IsbL-0175_RLatLon0.03_PT000H.grib2 2026-04-26 06:02 922K
20260426T00Z_MSC_CAPS_SpecificHumidity_IsbL-0200_RLatLon0.03_PT000H.grib2 2026-04-26 06:02 752K
20260426T00Z_MSC_CAPS_SpecificHumidity_IsbL-0225_RLatLon0.03_PT000H.grib2 2026-04-26 06:02 1.0M
20260426T00Z_MSC_CAPS_SpecificHumidity_IsbL-0250_RLatLon0.03_PT000H.grib2 2026-04-26 06:02 795K
20260426T00Z_MSC_CAPS_SpecificHumidity_IsbL-0275_RLatLon0.03_PT000H.grib2 2026-04-26 06:02 1.0M
20260426T00Z_MSC_CAPS_SpecificHumidity_IsbL-0300_RLatLon0.03_PT000H.grib2 2026-04-26 06:02 1.0M
20260426T00Z_MSC_CAPS_SpecificHumidity_IsbL-0350_RLatLon0.03_PT000H.grib2 2026-04-26 06:02 1.0M
20260426T00Z_MSC_CAPS_SpecificHumidity_IsbL-0400_RLatLon0.03_PT000H.grib2 2026-04-26 06:02 907K
20260426T00Z_MSC_CAPS_SpecificHumidity_IsbL-0450_RLatLon0.03_PT000H.grib2 2026-04-26 06:02 1.2M
20260426T00Z_MSC_CAPS_SpecificHumidity_IsbL-0500_RLatLon0.03_PT000H.grib2 2026-04-26 06:02 971K
20260426T00Z_MSC_CAPS_SpecificHumidity_IsbL-0550_RLatLon0.03_PT000H.grib2 2026-04-26 06:02 1.0M
20260426T00Z_MSC_CAPS_SpecificHumidity_IsbL-0600_RLatLon0.03_PT000H.grib2 2026-04-26 06:02 964K
20260426T00Z_MSC_CAPS_SpecificHumidity_IsbL-0650_RLatLon0.03_PT000H.grib2 2026-04-26 06:02 1.0M
20260426T00Z_MSC_CAPS_SpecificHumidity_IsbL-0700_RLatLon0.03_PT000H.grib2 2026-04-26 06:02 1.3M
20260426T00Z_MSC_CAPS_SpecificHumidity_IsbL-0750_RLatLon0.03_PT000H.grib2 2026-04-26 06:02 1.2M
20260426T00Z_MSC_CAPS_SpecificHumidity_IsbL-0800_RLatLon0.03_PT000H.grib2 2026-04-26 06:02 1.0M
20260426T00Z_MSC_CAPS_SpecificHumidity_IsbL-0850_RLatLon0.03_PT000H.grib2 2026-04-26 06:02 1.1M
20260426T00Z_MSC_CAPS_SpecificHumidity_IsbL-0875_RLatLon0.03_PT000H.grib2 2026-04-26 06:02 1.1M
20260426T00Z_MSC_CAPS_SpecificHumidity_IsbL-0900_RLatLon0.03_PT000H.grib2 2026-04-26 06:02 1.2M
20260426T00Z_MSC_CAPS_SpecificHumidity_IsbL-0925_RLatLon0.03_PT000H.grib2 2026-04-26 06:02 1.1M
20260426T00Z_MSC_CAPS_SpecificHumidity_IsbL-0950_RLatLon0.03_PT000H.grib2 2026-04-26 06:02 1.1M
20260426T00Z_MSC_CAPS_SpecificHumidity_IsbL-0970_RLatLon0.03_PT000H.grib2 2026-04-26 06:02 1.2M
20260426T00Z_MSC_CAPS_SpecificHumidity_IsbL-0985_RLatLon0.03_PT000H.grib2 2026-04-26 06:02 1.1M
20260426T00Z_MSC_CAPS_SpecificHumidity_IsbL-1000_RLatLon0.03_PT000H.grib2 2026-04-26 06:02 1.1M
20260426T00Z_MSC_CAPS_SpecificHumidity_IsbL-1015_RLatLon0.03_PT000H.grib2 2026-04-26 06:02 1.1M
20260426T00Z_MSC_CAPS_SpecificHumidity_Sfc_RLatLon0.03_PT000H.grib2 2026-04-26 06:02 2.4M
20260426T00Z_MSC_CAPS_StormRelativeHelicity_Sfc_RLatLon0.03_PT000H.grib2 2026-04-26 06:02 2.4M
20260426T00Z_MSC_CAPS_Thickness_IsbL-1000to0500_RLatLon0.03_PT000H.grib2 2026-04-26 06:02 393K
20260426T00Z_MSC_CAPS_TotalCloudCover_Sfc_RLatLon0.03_PT000H.grib2 2026-04-26 06:02 2.2M
20260426T00Z_MSC_CAPS_UpwardLongwaveRadiationFlux_NTAtm_RLatLon0.03_PT000H.grib2 2026-04-26 06:02 2.4M
20260426T00Z_MSC_CAPS_UpwardShortwaveRadiationFlux_NTAtm_RLatLon0.03_PT000H.grib2 2026-04-26 06:02 1.2M
20260426T00Z_MSC_CAPS_VerticalVelocity_IsbL-0250_RLatLon0.03_PT000H.grib2 2026-04-26 06:02 914K
20260426T00Z_MSC_CAPS_VerticalVelocity_IsbL-0500_RLatLon0.03_PT000H.grib2 2026-04-26 06:02 972K
20260426T00Z_MSC_CAPS_VerticalVelocity_IsbL-0700_RLatLon0.03_PT000H.grib2 2026-04-26 06:02 1.0M
20260426T00Z_MSC_CAPS_VerticalVelocity_IsbL-0850_RLatLon0.03_PT000H.grib2 2026-04-26 06:02 847K
20260426T00Z_MSC_CAPS_VerticalVelocity_IsbL-1000_RLatLon0.03_PT000H.grib2 2026-04-26 06:02 856K
20260426T00Z_MSC_CAPS_WindDir_AGL-10m_RLatLon0.03_PT000H.grib2 2026-04-26 06:02 1.6M
20260426T00Z_MSC_CAPS_WindDir_AGL-120m_RLatLon0.03_PT000H.grib2 2026-04-26 06:02 1.1M
20260426T00Z_MSC_CAPS_WindDir_AGL-40m_RLatLon0.03_PT000H.grib2 2026-04-26 06:02 1.1M
20260426T00Z_MSC_CAPS_WindDir_AGL-80m_RLatLon0.03_PT000H.grib2 2026-04-26 06:02 1.1M
20260426T00Z_MSC_CAPS_WindDir_IsbL-0050_RLatLon0.03_PT000H.grib2 2026-04-26 06:02 1.1M
20260426T00Z_MSC_CAPS_WindDir_IsbL-0100_RLatLon0.03_PT000H.grib2 2026-04-26 06:02 1.0M
20260426T00Z_MSC_CAPS_WindDir_IsbL-0150_RLatLon0.03_PT000H.grib2 2026-04-26 06:02 1.1M
20260426T00Z_MSC_CAPS_WindDir_IsbL-0175_RLatLon0.03_PT000H.grib2 2026-04-26 06:02 1.0M
20260426T00Z_MSC_CAPS_WindDir_IsbL-0200_RLatLon0.03_PT000H.grib2 2026-04-26 06:02 1.1M
20260426T00Z_MSC_CAPS_WindDir_IsbL-0225_RLatLon0.03_PT000H.grib2 2026-04-26 06:02 1.1M
20260426T00Z_MSC_CAPS_WindDir_IsbL-0250_RLatLon0.03_PT000H.grib2 2026-04-26 06:02 1.1M
20260426T00Z_MSC_CAPS_WindDir_IsbL-0275_RLatLon0.03_PT000H.grib2 2026-04-26 06:02 1.0M
20260426T00Z_MSC_CAPS_WindDir_IsbL-0300_RLatLon0.03_PT000H.grib2 2026-04-26 06:02 1.1M
20260426T00Z_MSC_CAPS_WindDir_IsbL-0350_RLatLon0.03_PT000H.grib2 2026-04-26 06:02 1.1M
20260426T00Z_MSC_CAPS_WindDir_IsbL-0400_RLatLon0.03_PT000H.grib2 2026-04-26 06:02 1.1M
20260426T00Z_MSC_CAPS_WindDir_IsbL-0450_RLatLon0.03_PT000H.grib2 2026-04-26 06:02 1.1M
20260426T00Z_MSC_CAPS_WindDir_IsbL-0500_RLatLon0.03_PT000H.grib2 2026-04-26 06:02 1.2M
20260426T00Z_MSC_CAPS_WindDir_IsbL-0550_RLatLon0.03_PT000H.grib2 2026-04-26 06:02 1.2M
20260426T00Z_MSC_CAPS_WindDir_IsbL-0600_RLatLon0.03_PT000H.grib2 2026-04-26 06:02 1.2M
20260426T00Z_MSC_CAPS_WindDir_IsbL-0650_RLatLon0.03_PT000H.grib2 2026-04-26 06:02 1.2M
20260426T00Z_MSC_CAPS_WindDir_IsbL-0700_RLatLon0.03_PT000H.grib2 2026-04-26 06:02 1.3M
20260426T00Z_MSC_CAPS_WindDir_IsbL-0750_RLatLon0.03_PT000H.grib2 2026-04-26 06:02 1.3M
20260426T00Z_MSC_CAPS_WindDir_IsbL-0800_RLatLon0.03_PT000H.grib2 2026-04-26 06:02 1.4M
20260426T00Z_MSC_CAPS_WindDir_IsbL-0850_RLatLon0.03_PT000H.grib2 2026-04-26 06:02 1.5M
20260426T00Z_MSC_CAPS_WindDir_IsbL-0875_RLatLon0.03_PT000H.grib2 2026-04-26 06:02 1.6M
20260426T00Z_MSC_CAPS_WindDir_IsbL-0900_RLatLon0.03_PT000H.grib2 2026-04-26 06:02 1.6M
20260426T00Z_MSC_CAPS_WindDir_IsbL-0925_RLatLon0.03_PT000H.grib2 2026-04-26 06:02 1.6M
20260426T00Z_MSC_CAPS_WindDir_IsbL-0950_RLatLon0.03_PT000H.grib2 2026-04-26 06:02 1.7M
20260426T00Z_MSC_CAPS_WindDir_IsbL-0970_RLatLon0.03_PT000H.grib2 2026-04-26 06:02 1.7M
20260426T00Z_MSC_CAPS_WindDir_IsbL-0985_RLatLon0.03_PT000H.grib2 2026-04-26 06:02 1.7M
20260426T00Z_MSC_CAPS_WindDir_IsbL-1000_RLatLon0.03_PT000H.grib2 2026-04-26 06:02 1.7M
20260426T00Z_MSC_CAPS_WindDir_IsbL-1015_RLatLon0.03_PT000H.grib2 2026-04-26 06:02 1.8M
20260426T00Z_MSC_CAPS_WindGust-Max_AGL-10m_RLatLon0.03_PT000H.grib2 2026-04-26 06:02 1.3M
20260426T00Z_MSC_CAPS_WindGust-Min_AGL-10m_RLatLon0.03_PT000H.grib2 2026-04-26 06:02 1.7M
20260426T00Z_MSC_CAPS_WindGust_AGL-10m_RLatLon0.03_PT000H.grib2 2026-04-26 06:02 1.9M
20260426T00Z_MSC_CAPS_WindSpeed_AGL-10m_RLatLon0.03_PT000H.grib2 2026-04-26 06:02 1.6M
20260426T00Z_MSC_CAPS_WindSpeed_AGL-120m_RLatLon0.03_PT000H.grib2 2026-04-26 06:02 1.2M
20260426T00Z_MSC_CAPS_WindSpeed_AGL-40m_RLatLon0.03_PT000H.grib2 2026-04-26 06:02 1.3M
20260426T00Z_MSC_CAPS_WindSpeed_AGL-80m_RLatLon0.03_PT000H.grib2 2026-04-26 06:02 1.2M
20260426T00Z_MSC_CAPS_WindSpeed_IsbL-0050_RLatLon0.03_PT000H.grib2 2026-04-26 06:02 916K
20260426T00Z_MSC_CAPS_WindSpeed_IsbL-0100_RLatLon0.03_PT000H.grib2 2026-04-26 06:02 827K
20260426T00Z_MSC_CAPS_WindSpeed_IsbL-0150_RLatLon0.03_PT000H.grib2 2026-04-26 06:02 1.0M
20260426T00Z_MSC_CAPS_WindSpeed_IsbL-0175_RLatLon0.03_PT000H.grib2 2026-04-26 06:02 1.1M
20260426T00Z_MSC_CAPS_WindSpeed_IsbL-0200_RLatLon0.03_PT000H.grib2 2026-04-26 06:02 1.2M
20260426T00Z_MSC_CAPS_WindSpeed_IsbL-0225_RLatLon0.03_PT000H.grib2 2026-04-26 06:02 888K
20260426T00Z_MSC_CAPS_WindSpeed_IsbL-0250_RLatLon0.03_PT000H.grib2 2026-04-26 06:02 1.0M
20260426T00Z_MSC_CAPS_WindSpeed_IsbL-0275_RLatLon0.03_PT000H.grib2 2026-04-26 06:02 1.0M
20260426T00Z_MSC_CAPS_WindSpeed_IsbL-0300_RLatLon0.03_PT000H.grib2 2026-04-26 06:02 1.0M
20260426T00Z_MSC_CAPS_WindSpeed_IsbL-0350_RLatLon0.03_PT000H.grib2 2026-04-26 06:02 1.0M
20260426T00Z_MSC_CAPS_WindSpeed_IsbL-0400_RLatLon0.03_PT000H.grib2 2026-04-26 06:02 1.0M
20260426T00Z_MSC_CAPS_WindSpeed_IsbL-0450_RLatLon0.03_PT000H.grib2 2026-04-26 06:02 942K
20260426T00Z_MSC_CAPS_WindSpeed_IsbL-0500_RLatLon0.03_PT000H.grib2 2026-04-26 06:02 1.2M
20260426T00Z_MSC_CAPS_WindSpeed_IsbL-0550_RLatLon0.03_PT000H.grib2 2026-04-26 06:02 1.2M
20260426T00Z_MSC_CAPS_WindSpeed_IsbL-0600_RLatLon0.03_PT000H.grib2 2026-04-26 06:02 1.2M
20260426T00Z_MSC_CAPS_WindSpeed_IsbL-0650_RLatLon0.03_PT000H.grib2 2026-04-26 06:02 1.2M
20260426T00Z_MSC_CAPS_WindSpeed_IsbL-0700_RLatLon0.03_PT000H.grib2 2026-04-26 06:02 1.2M
20260426T00Z_MSC_CAPS_WindSpeed_IsbL-0750_RLatLon0.03_PT000H.grib2 2026-04-26 06:02 1.2M
20260426T00Z_MSC_CAPS_WindSpeed_IsbL-0800_RLatLon0.03_PT000H.grib2 2026-04-26 06:02 1.3M
20260426T00Z_MSC_CAPS_WindSpeed_IsbL-0850_RLatLon0.03_PT000H.grib2 2026-04-26 06:02 1.4M
20260426T00Z_MSC_CAPS_WindSpeed_IsbL-0875_RLatLon0.03_PT000H.grib2 2026-04-26 06:02 1.4M
20260426T00Z_MSC_CAPS_WindSpeed_IsbL-0900_RLatLon0.03_PT000H.grib2 2026-04-26 06:02 1.4M
20260426T00Z_MSC_CAPS_WindSpeed_IsbL-0925_RLatLon0.03_PT000H.grib2 2026-04-26 06:02 1.4M
20260426T00Z_MSC_CAPS_WindSpeed_IsbL-0950_RLatLon0.03_PT000H.grib2 2026-04-26 06:02 1.4M
20260426T00Z_MSC_CAPS_WindSpeed_IsbL-0970_RLatLon0.03_PT000H.grib2 2026-04-26 06:02 1.4M
20260426T00Z_MSC_CAPS_WindSpeed_IsbL-0985_RLatLon0.03_PT000H.grib2 2026-04-26 06:02 1.4M
20260426T00Z_MSC_CAPS_WindSpeed_IsbL-1000_RLatLon0.03_PT000H.grib2 2026-04-26 06:02 1.4M
20260426T00Z_MSC_CAPS_WindSpeed_IsbL-1015_RLatLon0.03_PT000H.grib2 2026-04-26 06:02 1.3M
20260426T00Z_MSC_CAPS_WindU_AGL-10m_RLatLon0.03_PT000H.grib2 2026-04-26 06:02 1.1M
20260426T00Z_MSC_CAPS_WindU_AGL-120m_RLatLon0.03_PT000H.grib2 2026-04-26 06:02 1.0M
20260426T00Z_MSC_CAPS_WindU_AGL-40m_RLatLon0.03_PT000H.grib2 2026-04-26 06:02 1.0M
20260426T00Z_MSC_CAPS_WindU_AGL-80m_RLatLon0.03_PT000H.grib2 2026-04-26 06:02 1.0M
20260426T00Z_MSC_CAPS_WindU_IsbL-0050_RLatLon0.03_PT000H.grib2 2026-04-26 06:02 930K
20260426T00Z_MSC_CAPS_WindU_IsbL-0100_RLatLon0.03_PT000H.grib2 2026-04-26 06:02 740K
20260426T00Z_MSC_CAPS_WindU_IsbL-0150_RLatLon0.03_PT000H.grib2 2026-04-26 06:02 858K
20260426T00Z_MSC_CAPS_WindU_IsbL-0175_RLatLon0.03_PT000H.grib2 2026-04-26 06:02 676K
20260426T00Z_MSC_CAPS_WindU_IsbL-0200_RLatLon0.03_PT000H.grib2 2026-04-26 06:02 816K
20260426T00Z_MSC_CAPS_WindU_IsbL-0225_RLatLon0.03_PT000H.grib2 2026-04-26 06:02 830K
20260426T00Z_MSC_CAPS_WindU_IsbL-0250_RLatLon0.03_PT000H.grib2 2026-04-26 06:02 655K
20260426T00Z_MSC_CAPS_WindU_IsbL-0275_RLatLon0.03_PT000H.grib2 2026-04-26 06:02 665K
20260426T00Z_MSC_CAPS_WindU_IsbL-0300_RLatLon0.03_PT000H.grib2 2026-04-26 06:02 676K
20260426T00Z_MSC_CAPS_WindU_IsbL-0350_RLatLon0.03_PT000H.grib2 2026-04-26 06:02 690K
20260426T00Z_MSC_CAPS_WindU_IsbL-0400_RLatLon0.03_PT000H.grib2 2026-04-26 06:02 885K
20260426T00Z_MSC_CAPS_WindU_IsbL-0450_RLatLon0.03_PT000H.grib2 2026-04-26 06:02 889K
20260426T00Z_MSC_CAPS_WindU_IsbL-0500_RLatLon0.03_PT000H.grib2 2026-04-26 06:02 891K
20260426T00Z_MSC_CAPS_WindU_IsbL-0550_RLatLon0.03_PT000H.grib2 2026-04-26 06:02 897K
20260426T00Z_MSC_CAPS_WindU_IsbL-0600_RLatLon0.03_PT000H.grib2 2026-04-26 06:02 771K
20260426T00Z_MSC_CAPS_WindU_IsbL-0650_RLatLon0.03_PT000H.grib2 2026-04-26 06:02 785K
20260426T00Z_MSC_CAPS_WindU_IsbL-0700_RLatLon0.03_PT000H.grib2 2026-04-26 06:02 1.0M
20260426T00Z_MSC_CAPS_WindU_IsbL-0750_RLatLon0.03_PT000H.grib2 2026-04-26 06:02 1.0M
20260426T00Z_MSC_CAPS_WindU_IsbL-0800_RLatLon0.03_PT000H.grib2 2026-04-26 06:02 1.1M
20260426T00Z_MSC_CAPS_WindU_IsbL-0850_RLatLon0.03_PT000H.grib2 2026-04-26 06:02 1.2M
20260426T00Z_MSC_CAPS_WindU_IsbL-0875_RLatLon0.03_PT000H.grib2 2026-04-26 06:02 1.2M
20260426T00Z_MSC_CAPS_WindU_IsbL-0900_RLatLon0.03_PT000H.grib2 2026-04-26 06:02 1.2M
20260426T00Z_MSC_CAPS_WindU_IsbL-0925_RLatLon0.03_PT000H.grib2 2026-04-26 06:02 1.2M
20260426T00Z_MSC_CAPS_WindU_IsbL-0950_RLatLon0.03_PT000H.grib2 2026-04-26 06:02 1.2M
20260426T00Z_MSC_CAPS_WindU_IsbL-0970_RLatLon0.03_PT000H.grib2 2026-04-26 06:02 1.2M
20260426T00Z_MSC_CAPS_WindU_IsbL-0985_RLatLon0.03_PT000H.grib2 2026-04-26 06:02 1.2M
20260426T00Z_MSC_CAPS_WindU_IsbL-1000_RLatLon0.03_PT000H.grib2 2026-04-26 06:02 1.3M
20260426T00Z_MSC_CAPS_WindU_IsbL-1015_RLatLon0.03_PT000H.grib2 2026-04-26 06:02 1.2M
20260426T00Z_MSC_CAPS_WindV_AGL-10m_RLatLon0.03_PT000H.grib2 2026-04-26 06:02 1.1M
20260426T00Z_MSC_CAPS_WindV_AGL-120m_RLatLon0.03_PT000H.grib2 2026-04-26 06:02 1.0M
20260426T00Z_MSC_CAPS_WindV_AGL-40m_RLatLon0.03_PT000H.grib2 2026-04-26 06:02 921K
20260426T00Z_MSC_CAPS_WindV_AGL-80m_RLatLon0.03_PT000H.grib2 2026-04-26 06:02 1.0M
20260426T00Z_MSC_CAPS_WindV_IsbL-0050_RLatLon0.03_PT000H.grib2 2026-04-26 06:02 752K
20260426T00Z_MSC_CAPS_WindV_IsbL-0100_RLatLon0.03_PT000H.grib2 2026-04-26 06:02 742K
20260426T00Z_MSC_CAPS_WindV_IsbL-0150_RLatLon0.03_PT000H.grib2 2026-04-26 06:02 859K
20260426T00Z_MSC_CAPS_WindV_IsbL-0175_RLatLon0.03_PT000H.grib2 2026-04-26 06:02 679K
20260426T00Z_MSC_CAPS_WindV_IsbL-0200_RLatLon0.03_PT000H.grib2 2026-04-26 06:02 819K
20260426T00Z_MSC_CAPS_WindV_IsbL-0225_RLatLon0.03_PT000H.grib2 2026-04-26 06:02 826K
20260426T00Z_MSC_CAPS_WindV_IsbL-0250_RLatLon0.03_PT000H.grib2 2026-04-26 06:02 847K
20260426T00Z_MSC_CAPS_WindV_IsbL-0275_RLatLon0.03_PT000H.grib2 2026-04-26 06:02 859K
20260426T00Z_MSC_CAPS_WindV_IsbL-0300_RLatLon0.03_PT000H.grib2 2026-04-26 06:02 872K
20260426T00Z_MSC_CAPS_WindV_IsbL-0350_RLatLon0.03_PT000H.grib2 2026-04-26 06:02 888K
20260426T00Z_MSC_CAPS_WindV_IsbL-0400_RLatLon0.03_PT000H.grib2 2026-04-26 06:02 888K
20260426T00Z_MSC_CAPS_WindV_IsbL-0450_RLatLon0.03_PT000H.grib2 2026-04-26 06:02 890K
20260426T00Z_MSC_CAPS_WindV_IsbL-0500_RLatLon0.03_PT000H.grib2 2026-04-26 06:02 889K
20260426T00Z_MSC_CAPS_WindV_IsbL-0550_RLatLon0.03_PT000H.grib2 2026-04-26 06:02 760K
20260426T00Z_MSC_CAPS_WindV_IsbL-0600_RLatLon0.03_PT000H.grib2 2026-04-26 06:02 769K
20260426T00Z_MSC_CAPS_WindV_IsbL-0650_RLatLon0.03_PT000H.grib2 2026-04-26 06:02 783K
20260426T00Z_MSC_CAPS_WindV_IsbL-0700_RLatLon0.03_PT000H.grib2 2026-04-26 06:02 802K
20260426T00Z_MSC_CAPS_WindV_IsbL-0750_RLatLon0.03_PT000H.grib2 2026-04-26 06:02 830K
20260426T00Z_MSC_CAPS_WindV_IsbL-0800_RLatLon0.03_PT000H.grib2 2026-04-26 06:02 871K
20260426T00Z_MSC_CAPS_WindV_IsbL-0850_RLatLon0.03_PT000H.grib2 2026-04-26 06:02 925K
20260426T00Z_MSC_CAPS_WindV_IsbL-0875_RLatLon0.03_PT000H.grib2 2026-04-26 06:02 947K
20260426T00Z_MSC_CAPS_WindV_IsbL-0900_RLatLon0.03_PT000H.grib2 2026-04-26 06:02 960K
20260426T00Z_MSC_CAPS_WindV_IsbL-0925_RLatLon0.03_PT000H.grib2 2026-04-26 06:02 1.2M
20260426T00Z_MSC_CAPS_WindV_IsbL-0950_RLatLon0.03_PT000H.grib2 2026-04-26 06:02 1.2M
20260426T00Z_MSC_CAPS_WindV_IsbL-0970_RLatLon0.03_PT000H.grib2 2026-04-26 06:02 1.3M
20260426T00Z_MSC_CAPS_WindV_IsbL-0985_RLatLon0.03_PT000H.grib2 2026-04-26 06:02 1.3M
20260426T00Z_MSC_CAPS_WindV_IsbL-1000_RLatLon0.03_PT000H.grib2 2026-04-26 06:02 1.3M
20260426T00Z_MSC_CAPS_WindV_IsbL-1015_RLatLon0.03_PT000H.grib2 2026-04-26 06:02 1.2M